Regional Weather Roundup
Issued by NWS

Home | Current Version | Previous Version | Graphics & Text | Print | Product List | Glossary On
Versions: 1 2 3 4 5 6 7 8 9 10 11 12 13 14 15 16 17 18 19 20 21 22 23 24 25 26 27 28 29 30 31 32 33 34 35 36 37 38 39 40 41 42 43 44 45 46 47 48 49 50
645
ASUS44 KLIX 310610
RWRLA
LOUISIANA WEATHER ROUNDUP
NATIONAL WEATHER SERVICE NEW ORLEANS LA
100 AM CDT THU JUL 31 2014

NOTE: "FAIR" INDICATES FEW OR NO CLOUDS BELOW 12,000 FEET WITH NO
      SIGNIFICANT WEATHER AND/OR OBSTRUCTIONS TO VISIBILITY.
      SKY/WX - SKY CONDITION AND SIGNIFICANT WEATHER.
      TMP - AIR TEMPERATURE.    DP   - DEWPOINT TEMPERATURE.
      RH  - RELATIVE HUMIDITY.  PRES - PRESSURE.
      HX  - HEAT INDEX.         WCI  - WIND CHILL INDEX.

*  THESE STATIONS ARE NOT NWS OR FAA STATIONS AND ARE NOT UNDER
   NWS QUALITY CONTROL.

LAZ040-048-061>063-065-066-069-310700-
SOUTHEAST LOUISIANA

CITY           SKY/WX    TMP DP  RH WIND       PRES   REMARKS
N.O. AUDUBON     N/A     77  62  59 MISG        N/A
6HR MIN TEMP:  77; 6HR MAX TEMP:  85;

N.O. INTL ARPT CLEAR     76  61  59 E5        30.01F
6HR MIN TEMP:  75; 6HR MAX TEMP:  84;

N.O. LAKEFRONT CLEAR     80  63  55 E10       30.02F
6HR MIN TEMP:  80; 6HR MAX TEMP:  84;

N.O. DOWNTOWN* FAIR      81  59  47 NE5       30.02F
6HR MIN TEMP:  81; 6HR MAX TEMP:  84;

SLIDELL        CLEAR     68  64  87 CALM      30.02S
6HR MIN TEMP:  68; 6HR MAX TEMP:  83;

BATON ROUGE    PTCLDY    70  64  81 CALM      30.02F
6HR MIN TEMP:  70; 6HR MAX TEMP:  84;

BOOTHVILLE     CLEAR     77  68  73 SE5       30.02S
6HR MIN TEMP:  76; 6HR MAX TEMP:  82;

BELLE CHASSE   CLEAR     69  64  84 CALM      30.01F
6HR MIN TEMP:  69; 6HR MAX TEMP:  84;

BOGALUSA*        N/A     68  64  85 CALM      30.05R
6HR MIN TEMP:  68; 6HR MAX TEMP:  83;

GALLIANO*      NOT AVBL
NEW ROADS*     FAIR      70  67  90 NE3       30.02F
6HR MIN TEMP:  69; 6HR MAX TEMP:  82;

GONZALES*      FAIR      69  68  99 CALM      30.01F
6HR MIN TEMP:  69; 6HR MAX TEMP:  84;

HAMMOND*       CLEAR     68  63  83 CALM      30.04S
HOUMA*         CLEAR     70  65  84 CALM      30.01F
6HR MIN TEMP:  69; 6HR MAX TEMP:  86;

PORT FOURCHON* MOCLDY    81  66  61 E5        30.03F

$$

LAZ041-044-053-054-310700-
SOUTHWEST LOUISIANA

CITY           SKY/WX    TMP DP  RH WIND       PRES   REMARKS
LAKE CHARLES   CLEAR     74  67  78 SE5       30.01S
6HR MIN TEMP:  74; 6HR MAX TEMP:  87;

LAFAYETTE      CLEAR     73  68  84 CALM      30.01F
6HR MIN TEMP:  73; 6HR MAX TEMP:  85;

PATTERSON      CLEAR     72  68  88 SE3       30.04F
6HR MIN TEMP:  72; 6HR MAX TEMP:  84;

SALT POINT       N/A     77  69  76 CALM      30.00F
6HR MIN TEMP:  77; 6HR MAX TEMP:  88;

NEW IBERIA     CLEAR     76  67  73 NE8       30.02S
6HR MIN TEMP:  75; 6HR MAX TEMP:  86;

CHENAULT AIRPK CLEAR     73  65  78 E5        30.02S
6HR MIN TEMP:  73; 6HR MAX TEMP:  88;


$$

LAZ027-028-310700-
CENTRAL LOUISIANA

CITY           SKY/WX    TMP DP  RH WIND       PRES   REMARKS
FORT POLK      MOCLDY    76  64  66 SE9       30.01F
6HR MIN TEMP:  75; 6HR MAX TEMP:  86;

ALEXANDRIA INT MOCLDY    77  63  61 E7        30.00F
6HR MIN TEMP:  76; 6HR MAX TEMP:  86;

ALEXANDRIA     MOCLDY    73  66  78 E3        30.02F
6HR MIN TEMP:  71; 6HR MAX TEMP:  86;


$$

LAZ001-002-310700-
NORTHWEST LOUISIANA

CITY           SKY/WX    TMP DP  RH WIND       PRES   REMARKS
SHREVEPORT     MOCLDY    76  64  66 SE8       30.02R
6HR MIN TEMP:  75; 6HR MAX TEMP:  82;

BARKSDALE AFB  CLOUDY    73  65  75 E6        30.02S
6HR MIN TEMP:  73; 6HR MAX TEMP:  80;

DTN SHREVEPORT PTCLDY    74  64  71 E7        30.02S
6HR MIN TEMP:  74; 6HR MAX TEMP:  80;


$$

LAZ014-016-310700-
NORTHEAST LOUISIANA

CITY           SKY/WX    TMP DP  RH WIND       PRES   REMARKS
MONROE         MOCLDY    72  64  76 NE5       30.05S
6HR MIN TEMP:  71; 6HR MAX TEMP:  80;

TALLULAH       CLOUDY    74  64  71 NE5       30.04F
6HR MIN TEMP:  69; 6HR MAX TEMP:  80;


$$




USA.gov is the U.S. government's official web portal to all federal, state and local government web resources and services.